Stations météo

Publicité
Nancy/Essey, France (7180): Température de l'air & dewpoint: 20.05.2019 08:00:00 - 26.05.2019 08:00:00 (CEST)Nancy/Essey, France (7180): Température de l'air 5cm: 20.05.2019 08:00:00 - 26.05.2019 08:00:00 (CEST)Nancy/Essey, France (7180): Température de l'air -20cm & Température de l'air -100cm: 20.05.2019 08:00:00 - 26.05.2019 08:00:00 (CEST)Nancy/Essey, France (7180): Vitesse du vent & gusts: 20.05.2019 08:00:00 - 26.05.2019 08:00:00 (CEST)Nancy/Essey, France (7180): Direction du vent: 20.05.2019 08:00:00 - 26.05.2019 08:00:00 (CEST)Nancy/Essey, France (7180): reduced air pressure: 20.05.2019 08:00:00 - 26.05.2019 08:00:00 (CEST)Nancy/Essey, France (7180): visibility: 20.05.2019 08:00:00 - 26.05.2019 08:00:00 (CEST)Nancy/Essey, France (7180): Ensoleillement: 20.05.2019 08:00:00 - 26.05.2019 08:00:00 (CEST)Nancy/Essey, France (7180): Quantités de précipitations: 20.05.2019 08:00:00 - 26.05.2019 08:00:00 (CEST)
Date & Time tt [°C] td [°C] tt 5cm [°C] tt -20cm [°C] tt -100cm [°C] ff [km/h] ff [knt] fx [km/h] fx [knt] dd ppp [hPa] vv [km] sd [min] rr [mm]
26.05.2019 08:00:00 12,8 8,5 12,9 15,8 12,8 5 3 12 6 SSE 1018,6 36 60 0,0
26.05.2019 07:00:00 10,9 7,9 6,7 15,9 12,8 3 1 6 4 S 1018,7 20 42 0,0
26.05.2019 06:00:00 9,7 7,5 6,8 16,1 12,8 3 2 12 6 W 1018,6 60 0 0,0
26.05.2019 05:00:00 10,0 7,6 7,0 16,2 12,8 6 3 13 7 WNW 1018,6 60 0 0,0
26.05.2019 04:00:00 10,6 7,8 9,0 16,3 12,8 9 5 14 8 WNW 1018,6 60 0 0,0
26.05.2019 03:00:00 11,1 7,8 9,1 16,4 12,8 9 5 19 10 WNW 1018,7 60 0 0,0
26.05.2019 02:00:00 11,6 7,7 9,2 16,5 12,8 10 5 17 9 WNW 1018,6 60 0 0,0
26.05.2019 01:00:00 12,5 7,8 10,7 16,6 12,8 9 5 19 11 WNW 1018,7 60 0 0,0
26.05.2019 00:00:00 13,3 8,4 11,3 16,6 12,8 8 4 22 12 WNW 1018,8 60 0 0,0
25.05.2019 23:00:00 14,3 8,9 12,7 16,7 12,8 11 6 20 11 WNW 1018,4 60 0 0,0
25.05.2019 22:00:00 15,9 8,1 14,2 16,7 12,8 11 6 21 11 WNW 1017,9 60 0 0,0
25.05.2019 21:00:00 16,9 9,3 15,6 16,6 12,7 8 4 22 12 NW 1017,4 60 18 0,0
25.05.2019 20:00:00 18,0 8,5 16,9 16,6 12,8 14 8 35 19 WNW 1017,0 57 20 0,0
25.05.2019 19:00:00 19,1 7,5 19,9 16,5 12,8 21 11 35 19 NW 1016,7 55 52 0,0
25.05.2019 18:00:00 19,7 8,7 20,2 16,3 12,8 18 10 42 23 NNW 1016,4 52 29 0,0
25.05.2019 17:00:00 19,4 9,0 20,6 16,2 12,7 26 14 45 25 NNW 1016,2 42 9 0,0
25.05.2019 16:00:00 20,8 6,3 23,0 16,0 12,7 18 10 36 19 N 1016,0 51 20 0,0
25.05.2019 15:00:00 20,6 5,4 22,8 15,9 12,7 16 9 31 17 N 1016,2 20 30 0,0
25.05.2019 14:00:00 20,9 4,4 25,7 15,7 12,7 18 10 31 17 NW 1016,4 55 60 0,0
25.05.2019 13:00:00 19,2 4,5 20,7 15,7 12,7 11 6 25 13 N 1016,9 20 46 0,0
25.05.2019 12:00:00 17,0 6,8 19,3 15,7 12,7 16 8 28 15 N 1017,5 60 0 0,0
25.05.2019 11:00:00 16,8 5,7 17,1 15,7 12,7 12 7 22 12 N 1017,5 55 2 0,0
25.05.2019 10:00:00 15,7 8,2 17,0 15,8 12,7 10 5 20 11 NW 1017,3 20 0 0,0
25.05.2019 09:00:00 16,0 8,2 17,0 15,8 12,7 9 5 14 8 NW 1016,8 20 46 0,0
25.05.2019 08:00:00 15,2 8,7 14,3 15,9 12,7 7 4 18 10 WNW 1016,3 26 60 0,0
25.05.2019 07:00:00 13,8 8,2 11,1 16,0 12,6 7 4 14 8 WNW 1016,3 26 38 0,0
25.05.2019 06:00:00 12,8 8,3 10,0 16,1 12,6 9 5 14 8 WNW 1016,0 35 0 0,0
25.05.2019 05:00:00 13,3 8,4 10,6 16,2 12,6 9 5 14 8 W 1015,8 35 0 0,0
25.05.2019 04:00:00 13,7 8,7 12,0 16,3 12,6 8 5 21 12 W 1015,7 50 0 0,0
25.05.2019 03:00:00 14,6 9,0 12,6 16,4 12,6 10 5 18 10 W 1015,4 53 0 0,0
25.05.2019 02:00:00 15,1 9,0 12,2 16,5 12,6 10 5 16 8 WNW 1015,1 60 0 0,0
25.05.2019 01:00:00 15,3 8,8 10,8 16,6 12,6 6 4 15 8 W 1015,3 60 0 0,0
25.05.2019 00:00:00 16,4 8,6 13,0 16,7 12,6 8 4 15 8 W 1015,1 60 0 0,0
24.05.2019 23:00:00 17,1 8,2 9,3 16,7 12,6 7 4 16 9 W 1014,8 60 0 0,0
24.05.2019 22:00:00 15,8 9,0 10,0 16,7 12,6 3 2 10 5 ESE 1014,6 18 0 0,0
24.05.2019 21:00:00 19,7 7,4 17,3 16,6 12,6 8 5 19 10 NNW 1013,9 60 42 0,0
24.05.2019 20:00:00 21,0 6,9 19,7 16,5 12,6 14 7 26 14 NNW 1013,4 60 12 0,0
24.05.2019 19:00:00 21,8 6,8 21,8 16,4 12,6 16 8 29 16 NNW 1013,2 56 39 0,0
24.05.2019 18:00:00 22,4 6,2 22,7 16,2 12,6 11 6 20 11 NNW 1013,4 51 19 0,0
24.05.2019 17:00:00 22,2 7,2 23,3 16,0 12,6 10 5 22 12 N 1013,8 50 31 0,0
24.05.2019 16:00:00 22,0 7,4 24,0 15,7 12,6 11 6 19 11 NNE 1014,2 39 14 0,0
24.05.2019 15:00:00 22,1 8,9 25,2 15,5 12,6 8 4 18 10 NE 1014,4 20 40 0,0
24.05.2019 14:00:00 21,8 8,7 25,5 15,4 12,5 11 6 23 13 N 1014,8 47 40 0,0
24.05.2019 13:00:00 22,2 7,6 27,2 15,3 12,5 6 4 18 10 ENE 1014,8 20 52 0,0
24.05.2019 12:00:00 21,1 7,3 25,8 15,2 12,5 5 3 15 8 E 1015,2 50 53 0,0
24.05.2019 11:00:00 20,6 9,8 25,1 15,2 12,5 3 2 10 6 NE 1015,5 19 60 0,0
24.05.2019 10:00:00 18,8 8,7 23,0 15,3 12,5 4 2 9 5 SE 1015,7 27 60 0,0
24.05.2019 09:00:00 16,3 8,5 17,4 15,4 12,5 3 1 5 3 ESE 1016,0 20 54 0,0
24.05.2019 08:00:00 13,3 9,0 9,9 15,5 12,5 1 1 4 2 ESE 1016,2 18 49 0,0
24.05.2019 07:00:00 9,2 7,1 5,4 15,6 12,5 3 2 6 3 E 1016,4 15 27 0,0
24.05.2019 06:00:00 7,7 6,3 2,8 15,8 12,5 3 2 5 3 ESE 1016,2 15 0 0,0
24.05.2019 05:00:00 8,5 7,1 3,6 15,9 12,5 2 1 5 3 SE 1015,9 18 0 0,0
24.05.2019 04:00:00 9,2 7,1 5,1 16,0 12,5 3 1 5 3 E 1016,0 19 0 0,0
24.05.2019 03:00:00 11,1 8,0 5,6 16,1 12,5 4 2 5 3 NE 1016,1 20 0 0,0
24.05.2019 02:00:00 11,3 8,0 7,2 16,2 12,5 5 3 8 4 E 1016,5 20 0 0,0
24.05.2019 01:00:00 13,2 8,3 9,7 16,3 12,5 1 1 12 7 S 1016,6 35 0 0,0
24.05.2019 00:00:00 13,7 8,9 10,7 16,3 12,5 3 2 6 3 ENE 1016,7 40 0 0,0
23.05.2019 23:00:00 14,8 8,1 10,0 16,3 12,5 4 2 5 3 NW 1016,7 41 0 0,0
23.05.2019 22:00:00 15,4 9,1 11,5 16,3 12,4 4 2 9 5 E 1016,7 17 0 0,0
23.05.2019 21:00:00 17,1 9,0 14,6 16,2 12,4 7 4 13 7 NE 1016,3 56 16 0,0
23.05.2019 20:00:00 19,3 7,7 18,2 16,0 12,4 9 5 18 10 NNE 1016,1 59 24 0,0
23.05.2019 19:00:00 20,5 7,1 21,1 15,8 12,4 14 8 26 14 N 1016,1 58 51 0,0
23.05.2019 18:00:00 20,8 6,3 23,2 15,5 12,4 12 7 26 14 NNE 1016,4 20 57 0,0
23.05.2019 17:00:00 21,7 8,2 28,2 15,3 12,4 12 6 26 14 NNE 1016,6 30 60 0,0
23.05.2019 16:00:00 21,2 8,1 27,0 15,1 12,4 13 7 29 16 NNE 1017,1 20 60 0,0
23.05.2019 15:00:00 21,2 7,4 27,5 14,9 12,4 11 6 23 12 NNE 1017,5 60 60 0,0
23.05.2019 14:00:00 20,6 7,2 20,6 14,7 12,4 13 7 23 12 NE 1018,1 57 38 0,0
23.05.2019 13:00:00 19,1 5,9 21,7 14,5 12,4 8 4 18 10 NNE 1018,8 56 44 0,0
23.05.2019 12:00:00 19,3 7,1 25,5 14,5 12,4 8 5 17 9 ENE 1019,2 19 60 0,0
23.05.2019 11:00:00 18,3 8,5 24,2 14,5 12,4 6 3 13 7 ESE 1019,6 50 60 0,0
23.05.2019 10:00:00 16,5 7,9 20,9 14,6 12,4 5 3 11 6 SE 1019,9 42 60 0,0
23.05.2019 09:00:00 13,6 7,8 15,7 14,7 12,4 2 1 6 3 SSE 1020,3 20 60 0,0
23.05.2019 08:00:00 10,6 6,7 8,4 14,8 12,4 3 2 6 3 ESE 1020,5 19 56 0,0
23.05.2019 07:00:00 7,3 5,4 2,4 15,0 12,4 1 1 5 3 ESE 1020,5 18 41 0,0
23.05.2019 06:00:00 6,0 4,6 2,7 15,1 12,4 5 3 6 4 SE 1020,5 15 0 0,0
23.05.2019 05:00:00 6,2 4,8 2,0 15,3 12,4 3 1 6 4 E 1020,6 20 0 0,0
23.05.2019 04:00:00 6,7 4,7 2,8 15,4 12,4 3 1 5 3 ESE 1020,6 36 0 0,0
23.05.2019 03:00:00 7,6 5,2 3,5 15,5 12,4 3 1 10 6 ENE 1020,7 50 0 0,0
23.05.2019 02:00:00 7,6 5,2 3,3 15,6 12,4 5 3 7 4 ESE 1020,9 53 0 0,0
23.05.2019 01:00:00 8,3 5,0 3,9 15,7 12,4 1 1 4 2 SE 1020,8 60 0 0,0
23.05.2019 00:00:00 9,8 5,6 4,7 15,8 12,3 3 2 6 3 SSW 1020,5 60 0 0,0
22.05.2019 23:00:00 9,9 5,9 5,0 15,8 12,3 4 2 6 3 ESE 1020,6 57 0 0,0
22.05.2019 22:00:00 12,4 5,8 6,4 15,9 12,3 2 1 6 3 S 1020,1 56 0 0,0
22.05.2019 21:00:00 14,3 6,6 9,6 15,7 12,3 4 2 9 5 E 1019,6 60 0 0,0
22.05.2019 20:00:00 17,8 6,9 14,1 15,6 12,3 2 1 15 8 N 1019,2 60 7 0,0
22.05.2019 19:00:00 18,0 3,8 16,6 15,4 12,3 9 5 21 11 N 1019,2 60 8 0,0
22.05.2019 18:00:00 19,7 3,4 19,5 15,2 12,3 13 7 28 15 NNW 1019,3 48 30 0,0
22.05.2019 17:00:00 19,4 3,1 24,0 14,9 12,3 14 8 27 15 N 1019,5 37 52 0,0
22.05.2019 16:00:00 20,1 6,1 24,9 14,7 12,3 14 7 27 14 NE 1019,3 58 60 0,0
22.05.2019 15:00:00 19,6 2,4 24,3 14,5 12,3 14 7 30 16 WNW 1019,6 53 60 0,0
22.05.2019 14:00:00 18,6 5,8 23,7 14,3 12,3 13 7 29 16 NNE 1019,9 20 60 0,0
22.05.2019 13:00:00 17,9 4,1 23,0 14,2 12,3 10 6 27 14 N 1019,9 53 60 0,0
22.05.2019 12:00:00 17,0 4,3 18,3 14,2 12,3 11 6 35 19 NNW 1020,0 46 57 0,0
22.05.2019 11:00:00 16,2 6,9 19,2 14,2 12,3 7 4 24 13 N 1020,0 58 60 0,0
22.05.2019 10:00:00 14,7 5,2 18,0 14,3 12,2 16 9 26 14 NW 1020,1 48 60 0,0
22.05.2019 09:00:00 12,9 6,7 15,6 14,4 12,3 10 5 16 9 WNW 1020,3 20 60 0,0
22.05.2019 08:00:00 10,7 7,4 6,3 14,5 12,2 3 2 11 6 SE 1020,2 13 32 0,0
22.05.2019 07:00:00 7,7 6,8 1,7 14,7 12,3 6 3 8 5 WSW 1020,3 14 26 0,0
22.05.2019 06:00:00 5,1 4,1 0,2 14,8 12,2 4 2 6 3 S 1020,3 10 0 0,0
22.05.2019 05:00:00 5,1 3,9 -0,1 15,0 12,2 2 1 6 3 SSW 1020,0 8 0 0,2
22.05.2019 04:00:00 7,1 6,2 2,1 15,1 12,2 4 2 8 4 SSW 1019,7 8 0 0,0
22.05.2019 03:00:00 8,0 7,1 2,9 15,2 12,2 4 2 5 3 WSW 1019,4 7 0 0,0
22.05.2019 02:00:00 9,2 8,1 3,9 15,3 12,2 3 2 6 4 WSW 1019,2 6 0 0,0
22.05.2019 01:00:00 9,7 8,6 5,1 15,3 12,2 5 3 9 5 ESE 1019,1 3,7 0 0,0
22.05.2019 00:00:00 10,4 8,5 5,0 15,3 12,2 4 2 5 3 ENE 1018,8 5 0 0,0
21.05.2019 23:00:00 12,1 9,7 7,3 15,3 12,2 3 2 7 4 E 1018,5 9 0 0,0
21.05.2019 22:00:00 14,1 10,7 12,2 15,3 12,2 5 3 11 6 SE 1017,8 12 0 0,0
21.05.2019 21:00:00 15,2 11,0 14,4 15,3 12,2 8 5 17 9 ESE 1016,9 15 0 0,0
21.05.2019 20:00:00 16,8 10,6 16,5 15,2 12,2 9 5 24 13 NNE 1016,1 24 38 0,0
21.05.2019 19:00:00 18,1 8,9 18,0 15,0 12,2 16 9 32 17 N 1015,4 20 5 0,0
21.05.2019 18:00:00 18,3 8,5 18,9 14,9 12,2 19 10 34 18 N 1015,0 47 7 0,0
21.05.2019 17:00:00 19,5 9,1 21,4 14,7 12,2 18 10 37 20 NNW 1014,5 20 44 0,0
21.05.2019 16:00:00 18,9 9,4 20,4 14,6 12,2 21 11 39 21 NW 1014,6 20 44 0,0
21.05.2019 15:00:00 18,4 9,7 20,8 14,6 12,1 16 9 40 22 WNW 1014,3 20 49 0,0
21.05.2019 14:00:00 17,0 9,2 17,7 14,5 12,1 22 12 36 19 NW 1014,5 19 17 0,0
21.05.2019 13:00:00 15,4 9,5 15,8 14,5 12,1 18 10 32 17 WNW 1014,5 19 2 0,0
21.05.2019 12:00:00 13,9 8,9 14,7 14,5 12,1 17 9 36 19 WNW 1014,5 16 0 0,0
21.05.2019 11:00:00 12,7 8,6 12,6 14,6 12,0 13 7 34 18 WNW 1014,1 13 0 0,0
21.05.2019 10:00:00 11,7 8,5 12,1 14,6 12,1 16 9 40 22 WNW 1013,9 10 0 0,0
21.05.2019 09:00:00 12,1 8,6 12,2 14,7 12,1 18 10 36 20 W 1013,4 12 0 0,0
21.05.2019 08:00:00 12,1 8,8 11,9 14,7 12,1 13 7 33 18 W 1013,0 12 0 0,0
21.05.2019 07:00:00 12,0 9,0 11,7 14,8 12,1 14 8 33 18 W 1012,5 11 0 0,0
21.05.2019 06:00:00 12,0 8,8 11,5 14,8 12,0 12 7 27 15 W 1012,1 14 0 0,0
21.05.2019 05:00:00 11,8 8,6 11,5 14,9 12,0 13 7 26 14 W 1011,9 14 0 0,0
21.05.2019 04:00:00 11,8 9,0 11,6 15,0 12,0 13 7 34 18 WNW 1012,3 8 0 0,0
21.05.2019 03:00:00 12,2 8,7 11,9 15,1 12,0 14 8 36 19 W 1012,1 12 0 0,0
21.05.2019 02:00:00 12,3 9,3 12,0 15,1 12,0 14 8 31 17 W 1011,8 9 0 0,0
21.05.2019 01:00:00 12,6 9,1 12,3 15,2 12,0 12 7 31 17 W 1011,8 11 0 0,0
21.05.2019 00:00:00 12,7 9,3 12,4 15,2 12,0 13 7 29 16 W 1011,7 11 0 0,0
20.05.2019 23:00:00 12,8 9,2 12,5 15,2 12,0 11 6 26 14 W 1011,7 12 0 0,0
20.05.2019 22:00:00 12,9 9,3 12,6 15,3 12,0 10 6 28 15 W 1011,1 13 0 0,0
20.05.2019 21:00:00 13,2 9,4 12,9 15,3 12,0 18 10 34 18 W 1010,4 13 0 0,0
20.05.2019 20:00:00 13,6 9,8 13,5 15,2 11,9 17 9 37 20 W 1010,0 14 0 0,0
20.05.2019 19:00:00 14,2 10,2 14,1 15,2 12,0 14 8 31 17 W 1009,7 16 0 0,0
20.05.2019 18:00:00 13,9 10,5 13,8 15,2 11,9 16 9 32 17 WNW 1009,4 13 0 0,0
20.05.2019 17:00:00 14,1 10,3 14,1 15,1 11,9 19 11 37 20 W 1009,1 13 0 0,0
20.05.2019 16:00:00 15,7 10,9 16,6 15,0 11,9 19 10 36 19 W 1008,5 15 0 0,0
20.05.2019 15:00:00 16,2 10,7 18,2 14,9 11,9 16 9 40 21 WNW 1008,2 12 1 0,0
20.05.2019 14:00:00 16,8 11,3 18,5 14,8 11,9 16 9 36 19 WNW 1007,8 9 5 0,0
20.05.2019 13:00:00 17,1 10,9 19,0 14,8 11,9 13 7 31 17 WNW 1007,3 10 6 0,0
20.05.2019 12:00:00 16,8 10,6 17,7 14,7 11,9 16 9 33 18 NW 1007,2 11 4 0,0
20.05.2019 11:00:00 15,5 10,5 17,3 14,7 11,9 17 9 32 17 WNW 1007,2 10 6 0,0
20.05.2019 10:00:00 15,5 10,9 17,0 14,7 11,9 15 8 28 15 NNW 1006,9 10 29 0,0
20.05.2019 09:00:00 14,6 10,8 14,9 14,7 11,9 15 8 26 14 NW 1006,5 8 40 0,0
20.05.2019 08:00:00 13,8 10,8 13,5 14,8 11,9 12 7 27 15 WNW 1006,4 8 1 0,0

tt = Température de l'air
td = dewpoint
tt 5cm = Température de l'air 5cm
tt -20cm = Température de l'air -20cm
tt -100cm = Température de l'air -100cm
ff = Vitesse du vent
fx = gusts
dd = Direction du vent
ppp = reduced air pressure
vv = visibility
sd = Ensoleillement
rr = Quantités de précipitations

stations d'obs. à proximité